Home   Weather   Napa   Past weeks

Flag for USA Past Weather in Napa, California, USA — Yesterday and Last 2 Weeks

Now
46 °F

Fog.


Feels Like: 38 °F
Forecast: 42 / 54 °F
Wind: 20 mph from East

Location: Napa County Airport

Current Time: Jan 18, 2017 at 8:39:10 am

Latest Report: Jan 18, 2017 at 7:54 am


Visibility: 2 mi

Pressure: 29.96 "Hg

Humidity: 86%

Dew Point: 42 °F

Location of NapaLocation

Past Weather in Napa — Graph

°F

Napa Temperature Yesterday

Maximum temperature yesterday: 52 °F (at 12:54 pm)
Minimum temperature yesterday: 34 °F (at 3:27 am)
Average temperature yesterday: 42 °F

High & Low Weather Summary for the Past Weeks

 TemperatureHumidityPressure
High63 °F (Jan 8, 10:54 am)97% (Jan 5, 8:54 am)30.25 "Hg (Jan 5, 8:54 am)
Low28 °F (Jan 6, 4:54 am)42% (Jan 6, 12:54 pm)29.61 "Hg (Jan 10, 5:54 pm)
Average49 °F83%29.99 "Hg
* Reported Jan 3 6:29 am — Jan 18 6:54 am, Napa, Weather by CustomWeather, © 2017

Note: Actual official high and low records may vary slightly from our data, if they occured in-between our weather recording intervals... More about our weather records

Advertising

Napa Weather History for the Previous 24 Hours

Scroll right to see more
 ConditionsComfort  
Time TempWeatherWind HumidityBarometerVisibility
6:54 am
Wed, Jan 18
46 °FFog.12 mph86%30.03 "Hg4 mi
5:54 am46 °FFog.12 mph86%30.05 "Hg4 mi
4:54 am46 °FLight rain. Fog.15 mph86%30.01 "Hg5 mi
3:54 am46 °FLight rain. Fog.5 mph89%30.05 "Hg4 mi
2:54 am47 °FMostly cloudy.3 mph83%30.06 "Hg5 mi
1:54 am46 °FFog.No wind86%30.07 "Hg6 mi
12:54 am47 °FOvercast.5 mph80%30.09 "Hg6 mi
11:54 pm
Tue, Jan 17
46 °FOvercast.9 mph83%30.11 "Hg6 mi
10:54 pm46 °FOvercast.12 mph83%30.08 "Hg6 mi
9:54 pm45 °FFog.16 mph86%30.07 "Hg5 mi
8:54 pm46 °FClear.12 mph83%30.11 "Hg5 mi
7:54 pm46 °FClear.13 mph83%30.12 "Hg5 mi
6:54 pm46 °FClear.6 mph83%30.11 "Hg6 mi
5:54 pm47 °FClear.6 mph77%30.11 "Hg7 mi
4:54 pm47 °FSunny.10 mph80%30.10 "Hg6 mi
3:54 pm47 °FSunny.13 mph80%30.10 "Hg5 mi
2:54 pm49 °FSunny.15 mph77%30.09 "Hg6 mi
1:54 pm52 °FSunny.15 mph72%30.08 "Hg8 mi
12:54 pm52 °FSunny.15 mph72%30.09 "Hg8 mi
11:54 am51 °FSunny.13 mph66%30.13 "Hg9 mi
10:54 am50 °FSunny.10 mph71%30.14 "Hg9 mi
9:54 am48 °FSunny.7 mph77%30.14 "Hg8 mi
8:54 am43 °FScattered clouds.3 mph82%30.14 "Hg8 mi
8:04 am43 °FPartly sunny.3 mph82%30.15 "Hg9 mi
Weather by CustomWeather, © 2017

See weather overviewHow to use our weather pages